This is the latest recevied weather packets stored in our database for station/object KK7KRZ. If no packets are shown the sender has not sent any weather packets the latest 10 day(s).
| Time | Temp. | Humidity | Pressure | Rain* | Wind** | Luminosity | Snow |
|---|---|---|---|---|---|---|---|
| 1777857347 | 30° C | 31% | 1006.2 hPa | 0 mm | - | 30 W/m² | - |
| 1777857043 | 30° C | 31% | 1006.4 hPa | 0 mm | - | 31 W/m² | - |
| 1777856739 | 30° C | 32% | 1006.4 hPa | 0 mm | - | 33 W/m² | - |
| 1777856435 | 30.56° C | 31% | 1006.7 hPa | 0 mm | - | 34 W/m² | - |
| 1777856132 | 30.56° C | 32% | 1006.6 hPa | 0 mm | - | 39 W/m² | - |
| 1777855830 | 30.56° C | 31% | 1006.6 hPa | 0 mm | - | 41 W/m² | - |
| 1777855528 | 30.56° C | 31% | 1006.8 hPa | 0 mm | - | 46 W/m² | - |
| 1777855224 | 30.56° C | 30% | 1006.7 hPa | 0 mm | - | 51 W/m² | - |
| 1777854921 | 30.56° C | 31% | 1006.8 hPa | 0 mm | - | 55 W/m² | - |
| 1777854617 | 30.56° C | 30% | 1006.7 hPa | 0 mm | - | 57 W/m² | - |
| 1777854315 | 30.56° C | 30% | 1006.8 hPa | 0 mm | - | 59 W/m² | - |
| 1777854012 | 30.56° C | 31% | 1006.9 hPa | 0 mm | - | 57 W/m² | - |
| 1777853710 | 30.56° C | 31% | 1007 hPa | 0 mm | - | 57 W/m² | - |
| 1777853406 | 30.56° C | 31% | 1006.8 hPa | 0 mm | - | 54 W/m² | - |
| 1777853103 | 30.56° C | 34% | 1006.9 hPa | 0 mm | - | 51 W/m² | - |
| 1777852800 | 30.56° C | 32% | 1007 hPa | 0 mm | - | 50 W/m² | - |
| 1777852498 | 30.56° C | 31% | 1006.8 hPa | 0 mm | - | 68 W/m² | - |
| 1777852195 | 30.56° C | 32% | 1007 hPa | 0 mm | - | 44 W/m² | - |
| 1777851892 | 30.56° C | 30% | 1006.8 hPa | 0 mm | - | 45 W/m² | - |
| 1777851591 | 31.11° C | 30% | 1006.9 hPa | 0 mm | - | 44 W/m² | - |
| 1777851287 | 31.11° C | 30% | 1006.9 hPa | 0 mm | - | 44 W/m² | - |
| 1777850983 | 30.56° C | 30% | 1007 hPa | 0 mm | - | 45 W/m² | - |
| 1777850680 | 31.11° C | 29% | 1007.2 hPa | 0 mm | - | 46 W/m² | - |
| 1777850378 | 31.11° C | 29% | 1007 hPa | 0 mm | - | 48 W/m² | - |
| 1777850075 | 31.67° C | 30% | 1007.3 hPa | 0 mm | - | 115 W/m² | - |
* Rain latest hour (hover to see other rain measurements)
** Current wind speed in m/s (hover to see current wind gust speed)